| time (UTC) | temp F | wind direction | speed MPH | gust MPH | rain 1hr in | rain 24hr in | rain mn in | humidity % | barometer mb |
| 20260903014520 | 75 | 76 | 2.0 | 8.0 | 0.28 | 0.28 | 0.28 | 92 | 1013.9 |
| 20260903013023 | 76 | 37 | 0.0 | 6.0 | 0.09 | 0.09 | 0.09 | 92 | 1013.5 |
| 20260903011527 | 76 | 51 | 1.0 | 4.0 | 0.07 | 0.07 | 0.07 | 91 | 1013.4 |
| 20260903010037 | 77 | 39 | 1.0 | 6.0 | 0.01 | 0.01 | 0.01 | 87 | 1013.6 |
| 20260903004511 | 78 | 128 | 1.0 | 9.0 | 0.00 | 0.00 | 0.00 | 84 | 1013.5 |
| 20260903003018 | 80 | 71 | 1.0 | 11.0 | 0.00 | 0.00 | 0.00 | 80 | 1013.4 |
| 20260903001523 | 80 | 102 | 2.0 | 11.0 | 0.00 | 0.00 | 0.00 | 80 | 1013.4 |
| 20260903000030 | 80 | 74 | 2.0 | 11.0 | 0.00 | 0.00 | 0.00 | 79 | 1013.4 |
| 20260902234534 | 79 | 142 | 2.0 | 8.0 | 0.00 | 0.00 | 0.00 | 80 | 1013.5 |
| 20260902233017 | 81 | 103 | 2.0 | 14.0 | 0.00 | 0.00 | 0.00 | 78 | 1013.7 |
| 20260902231539 | 82 | 125 | 6.0 | 14.0 | 0.00 | 0.00 | 0.00 | 74 | 1013.5 |
| 20260902230029 | 83 | 71 | 4.0 | 22.0 | 0.00 | 0.00 | 0.00 | 74 | 1013.3 |
| 20260902224530 | 83 | 20 | 3.0 | 14.0 | 0.00 | 0.00 | 0.00 | 73 | 1013.1 |
| 20260902223038 | 84 | 71 | 2.0 | 18.0 | 0.00 | 0.00 | 0.00 | 70 | 1013.3 |
| 20260902221534 | 84 | 206 | 7.0 | 20.0 | 0.00 | 0.00 | 0.00 | 70 | 1013.2 |
| 20260902220032 | 84 | 120 | 2.0 | 19.0 | 0.00 | 0.00 | 0.00 | 70 | 1013.4 |
| 20260902214530 | 84 | 60 | 3.0 | 16.0 | 0.00 | 0.00 | 0.00 | 70 | 1013.5 |
| 20260902213031 | 85 | 102 | 4.0 | 19.0 | 0.00 | 0.00 | 0.00 | 68 | 1013.4 |
| 20260902211531 | 87 | 124 | 2.0 | 11.0 | 0.00 | 0.00 | 0.00 | 68 | 1013.4 |
| 20260902210030 | 87 | 104 | 6.0 | 22.0 | 0.00 | 0.00 | 0.00 | 66 | 1013.6 |
| 20260902204528 | 87 | 329 | 1.0 | 13.0 | 0.00 | 0.00 | 0.00 | 66 | 1013.5 |
| 20260902203007 | 87 | 59 | 3.0 | 12.0 | 0.00 | 0.00 | 0.00 | 67 | 1013.6 |
| 20260902201513 | 87 | 96 | 3.0 | 13.0 | 0.00 | 0.00 | 0.00 | 67 | 1013.7 |
| 20260902200019 | 86 | 74 | 3.0 | 13.0 | 0.00 | 0.00 | 0.00 | 69 | 1013.9 |
| 20260902194512 | 86 | 338 | 2.0 | 9.0 | 0.00 | 0.00 | 0.00 | 68 | 1013.9 |
| 20260902193007 | 87 | 24 | 1.0 | 14.0 | 0.00 | 0.00 | 0.00 | 69 | 1014.0 |
| 20260902191508 | 86 | 49 | 3.0 | 12.0 | 0.00 | 0.00 | 0.00 | 69 | 1014.1 |
| 20260902190015 | 86 | 76 | 2.0 | 14.0 | 0.00 | 0.00 | 0.00 | 70 | 1014.2 |
| 20260902184529 | 85 | 113 | 3.0 | 13.0 | 0.00 | 0.00 | 0.00 | 72 | 1014.7 |
| 20260902183005 | 85 | 74 | 2.0 | 13.0 | 0.00 | 0.00 | 0.00 | 71 | 1014.9 |
| 20260902181507 | 84 | 89 | 5.0 | 18.0 | 0.00 | 0.00 | 0.00 | 72 | 1015.3 |
| 20260902180012 | 85 | 134 | 4.0 | 14.0 | 0.00 | 0.00 | 0.00 | 70 | 1015.5 |
| 20260902174515 | 86 | 99 | 2.0 | 14.0 | 0.00 | 0.00 | 0.00 | 69 | 1015.5 |
| 20260902173027 | 87 | 96 | 5.0 | 13.0 | 0.00 | 0.00 | 0.00 | 66 | 1015.4 |
| 20260902171504 | 88 | 24 | 1.0 | 13.0 | 0.00 | 0.00 | 0.00 | 67 | 1015.3 |
| 20260902170015 | 87 | 119 | 1.0 | 8.0 | 0.00 | 0.00 | 0.00 | 68 | 1015.6 |
| 20260902164513 | 85 | 63 | 2.0 | 10.0 | 0.00 | 0.00 | 0.00 | 73 | 1015.9 |
| 20260902163018 | 84 | 102 | 4.0 | 12.0 | 0.00 | 0.00 | 0.00 | 75 | 1016.2 |
| 20260902161536 | 83 | 80 | 3.0 | 9.0 | 0.00 | 0.00 | 0.00 | 77 | 1016.3 |
| 20260902160028 | 83 | 104 | 2.0 | 10.0 | 0.00 | 0.00 | 0.00 | 78 | 1016.1 |
| 20260902154513 | 82 | 19 | 2.0 | 8.0 | 0.00 | 0.00 | 0.00 | 81 | 1016.3 |
| 20260902153016 | 82 | 65 | 0.0 | 8.0 | 0.00 | 0.00 | 0.00 | 82 | 1016.2 |
| 20260902151528 | 82 | 46 | 2.0 | 6.0 | 0.00 | 0.00 | 0.00 | 83 | 1016.3 |
| 20260902150030 | 81 | 38 | 2.0 | 7.0 | 0.00 | 0.00 | 0.00 | 82 | 1016.2 |
| 20260902144530 | 81 | 88 | 1.0 | 10.0 | 0.00 | 0.00 | 0.00 | 82 | 1016.3 |
| 20260902143013 | 82 | 64 | 1.0 | 5.0 | 0.00 | 0.00 | 0.00 | 82 | 1016.2 |
| 20260902141503 | 81 | 48 | 0.0 | 4.0 | 0.00 | 0.00 | 0.00 | 84 | 1016.3 |
| 20260902140011 | 80 | 123 | 1.0 | 6.0 | 0.00 | 0.00 | 0.00 | 85 | 1016.3 |
| 20260902134517 | 79 | 11 | 0.0 | 6.0 | 0.00 | 0.00 | 0.00 | 87 | 1016.3 |
| 20260902133016 | 78 | 227 | 0.0 | 4.0 | 0.00 | 0.00 | 0.00 | 88 | 1016.3 |
| 20260902131515 | 77 | 34 | 1.0 | 6.0 | 0.00 | 0.00 | 0.00 | 89 | 1016.1 |
| 20260902130004 | 76 | 40 | 0.0 | 4.0 | 0.00 | 0.00 | 0.00 | 90 | 1016.2 |
| 20260902124504 | 75 | 65 | 0.0 | 3.0 | 0.00 | 0.00 | 0.00 | 90 | 1016.3 |
| 20260902123011 | 75 | 156 | 0.0 | 3.0 | 0.00 | 0.00 | 0.00 | 90 | 1016.3 |
| 20260902121515 | 75 | 86 | 0.0 | 3.0 | 0.00 | 0.00 | 0.00 | 89 | 1016.2 |
| 20260902120019 | 75 | 76 | 0.0 | 1.0 | 0.00 | 0.00 | 0.00 | 89 | 1016.1 |
| 20260902114508 | 75 | 91 | 0.0 | 0.0 | 0.00 | 0.00 | 0.00 | 88 | 1016.2 |
| 20260902113008 | 75 | 92 | 0.0 | 1.0 | 0.00 | 0.00 | 0.00 | 88 | 1016.0 |
| 20260902111509 | 75 | 92 | 0.0 | 0.0 | 0.00 | 0.00 | 0.00 | 87 | 1015.8 |
| 20260902110027 | 76 | 92 | 0.0 | 0.0 | 0.00 | 0.00 | 0.00 | 87 | 1015.9 |
| 20260902104544 | 76 | 92 | 0.0 | 0.0 | 0.00 | 0.00 | 0.00 | 86 | 1015.9 |
| 20260902103029 | 76 | 92 | 0.0 | 0.0 | 0.00 | 0.00 | 0.00 | 86 | 1015.8 |
| 20260902101508 | 77 | 92 | 0.0 | 0.0 | 0.00 | 0.00 | 0.00 | 85 | 1016.1 |
| 20260902100013 | 77 | 92 | 0.0 | 0.0 | 0.00 | 0.00 | 0.00 | 85 | 1016.1 |
| 20260902094518 | 77 | 92 | 0.0 | 0.0 | 0.00 | 0.00 | 0.00 | 84 | 1015.6 |
| 20260902093027 | 77 | 69 | 0.0 | 0.0 | 0.00 | 0.00 | 0.00 | 83 | 1015.7 |
| 20260902091530 | 78 | 69 | 0.0 | 1.0 | 0.00 | 0.00 | 0.00 | 83 | 1015.8 |
| 20260902090010 | 78 | 63 | 0.0 | 2.0 | 0.00 | 0.00 | 0.00 | 82 | 1015.8 |
| 20260902084516 | 78 | 94 | 0.0 | 0.0 | 0.00 | 0.00 | 0.00 | 81 | 1015.7 |
| 20260902083024 | 78 | 84 | 0.0 | 1.0 | 0.00 | 0.00 | 0.00 | 81 | 1015.8 |
| 20260902081527 | 78 | 155 | 0.0 | 0.0 | 0.00 | 0.00 | 0.00 | 80 | 1015.9 |
| 20260902080033 | 78 | 155 | 0.0 | 0.0 | 0.00 | 0.00 | 0.00 | 80 | 1015.8 |
| 20260902074512 | 78 | 155 | 0.0 | 0.0 | 0.00 | 0.00 | 0.00 | 79 | 1015.9 |
| 20260902073018 | 78 | 155 | 0.0 | 0.0 | 0.00 | 0.00 | 0.00 | 78 | 1016.1 |
| 20260902071534 | 78 | 155 | 0.0 | 0.0 | 0.00 | 0.00 | 0.00 | 78 | 1016.2 |
| 20260902070033 | 78 | 155 | 0.0 | 0.0 | 0.00 | 0.00 | 0.00 | 77 | 1016.1 |
| 20260902064529 | 79 | 155 | 0.0 | 0.0 | 0.00 | 0.00 | 0.00 | 76 | 1016.1 |
| 20260902063017 | 79 | 155 | 0.0 | 0.0 | 0.00 | 0.00 | 0.00 | 75 | 1016.2 |
| 20260902061523 | 80 | 155 | 0.0 | 0.0 | 0.00 | 0.00 | 0.00 | 74 | 1016.3 |
| 20260902060033 | 80 | 97 | 0.0 | 1.0 | 0.00 | 0.00 | 0.00 | 73 | 1016.3 |
| 20260902054529 | 80 | 49 | 0.0 | 0.0 | 0.00 | 0.00 | 0.00 | 72 | 1016.0 |
| 20260902053015 | 81 | 49 | 0.0 | 0.0 | 0.00 | 0.00 | 0.00 | 71 | 1016.2 |
| 20260902051518 | 81 | 36 | 0.0 | 0.0 | 0.00 | 0.00 | 0.00 | 70 | 1016.1 |
| 20260902050022 | 82 | 36 | 0.0 | 0.0 | 0.00 | 0.00 | 0.00 | 69 | 1016.1 |
| 20260902044515 | 83 | 107 | 0.0 | 0.0 | 0.00 | 0.00 | 0.00 | 68 | 1016.1 |
| 20260902043013 | 83 | 117 | 1.0 | 9.0 | 0.00 | 0.00 | 0.00 | 67 | 1016.0 |
| 20260902041521 | 83 | 78 | 0.0 | 7.0 | 0.00 | 0.00 | 0.00 | 68 | 1016.0 |
| 20260902040019 | 83 | 113 | 1.0 | 4.0 | 0.00 | 0.00 | 0.00 | 69 | 1016.1 |
| 20260902034521 | 83 | 121 | 1.0 | 6.0 | 0.00 | 0.00 | 0.00 | 70 | 1016.2 |
| 20260902033004 | 83 | 140 | 0.0 | 0.0 | 0.00 | 0.00 | 0.00 | 71 | 1016.1 |
| 20260902031518 | 84 | 140 | 0.0 | 0.0 | 0.00 | 0.00 | 0.00 | 70 | 1016.0 |
| 20260902030015 | 85 | 140 | 0.0 | 0.0 | 0.00 | 0.00 | 0.00 | 69 | 1015.8 |
| 20260902024524 | 85 | 133 | 0.0 | 2.0 | 0.00 | 0.00 | 0.00 | 68 | 1015.6 |
| 20260902023024 | 85 | 162 | 0.0 | 0.0 | 0.00 | 0.00 | 0.00 | 68 | 1015.4 |
| 20260902021505 | 86 | 162 | 0.0 | 1.0 | 0.00 | 0.00 | 0.00 | 66 | 1015.3 |
| 20260902020013 | 86 | 161 | 0.0 | 2.0 | 0.00 | 0.00 | 0.00 | 64 | 1015.1 |